Waskish, MN

5:41 PM CST on February 10, 2016 (GMT -0600)
Waskish Municipal

Weather History for KVWU - January, 2013

Change the Weather History Date:

Thursday, January 10, 2013

  Actual Average (KBDE) Record (KBDE)
Temperature  
Mean Temperature 38 °F -  
Max Temperature 51 °F 13 °F 48 °F (2013)
Min Temperature 26 °F -12 °F -39 °F (1991)
Degree Days  
Heating Degree Days 26    
Moisture  
Dew Point 23 °F    
Average Humidity 56    
Maximum Humidity 81    
Minimum Humidity 35    
Precipitation  
Precipitation 0.00 in - - ()
Sea Level Pressure  
Sea Level Pressure 29.88 in    
Wind  
Wind Speed 11 mph (SSE)    
Max Wind Speed 18 mph    
Max Gust Speed 33 mph    
Visibility 10 miles    
Events      
Averages and records for this station are not official NWS values.
T = Trace of Precipitation, MM = Missing Value Source: NWS Daily Summary

Daily Weather History Graph

Daily Weather History Graph

Search for Another Location

Airport or City:

Trip Planner

Search our weather history database for the weather conditions in past years. The results will help you decide how hot, cold, wet, or windy it might be!

Date:

Astronomy

Jan. 10, 2013 Rise Set
Actual Time 8:06 AM CST 4:45 PM CST
Civil Twilight 7:30 AM CST 5:21 PM CST
Nautical Twilight 6:51 AM CST 6:00 PM CST
Astronomical Twilight 6:14 AM CST 6:37 PM CST
Moon 6:46 AM CST 3:55 PM CST
Length of Visible Light 9h 50m
Length of Day
8h 39m
Waning Crescent, 2% of the Moon is Illuminated
Jan 10
Waning Crescent
Jan 11
New
Jan 18
First Quarter
Jan 26
Full
Feb 3
Last Quarter

Hourly Weather History & Observations

Time (CST) Temp. Windchill Dew Point Humidity Pressure Visibility Wind Dir Wind Speed Gust Speed Precip Events Conditions
12:16 AM 26.6 °F 18.2 °F 17.6 °F 69% 30.07 in 10.0 mi SSE 8.1 mph - N/A   Clear
12:37 AM 26.6 °F 19.1 °F 17.6 °F 69% 30.06 in 10.0 mi SE 6.9 mph - N/A   Clear
12:57 AM 26.6 °F 16.8 °F 17.6 °F 69% 30.06 in 10.0 mi SE 10.4 mph - N/A   Clear
1:16 AM 28.4 °F 21.2 °F 19.4 °F 69% 30.07 in 10.0 mi SSE 6.9 mph - N/A   Clear
1:37 AM 28.4 °F 19.7 °F 19.4 °F 69% 30.07 in 10.0 mi SSE 9.2 mph 16.1 mph N/A   Clear
1:57 AM 28.4 °F 19.1 °F 19.4 °F 69% 30.07 in 10.0 mi SSE 10.4 mph - N/A   Clear
2:16 AM 28.4 °F 19.1 °F 19.4 °F 69% 30.05 in 10.0 mi SSE 10.4 mph 16.1 mph N/A   Clear
2:37 AM 28.4 °F 18.5 °F 21.2 °F 74% 30.05 in 10.0 mi SSE 11.5 mph 19.6 mph N/A   Clear
2:57 AM 28.4 °F 19.7 °F 21.2 °F 74% 30.04 in 10.0 mi SSE 9.2 mph 17.3 mph N/A   Clear
3:16 AM 28.4 °F 19.7 °F 21.2 °F 74% 30.03 in 10.0 mi SE 9.2 mph 17.3 mph N/A   Clear
3:37 AM 28.4 °F 18.5 °F 21.2 °F 74% 30.01 in 10.0 mi SE 11.5 mph 17.3 mph N/A   Clear
3:56 AM 28.4 °F 17.5 °F 21.2 °F 74% 30.00 in 10.0 mi SE 13.8 mph 20.7 mph N/A   Clear
4:16 AM 28.4 °F 19.1 °F 21.2 °F 74% 29.98 in 10.0 mi SSE 10.4 mph 23.0 mph N/A   Clear
4:37 AM 28.4 °F 18.0 °F 21.2 °F 74% 29.97 in 10.0 mi SSE 12.7 mph 19.6 mph N/A   Clear
4:56 AM 28.4 °F 17.5 °F 23.0 °F 80% 29.96 in 10.0 mi SSE 13.8 mph 21.9 mph N/A   Clear
5:16 AM 30.2 °F 22.6 °F 23.0 °F 75% 29.95 in 10.0 mi SSE 8.1 mph 21.9 mph N/A   Clear
5:37 AM 30.2 °F 26.7 °F 23.0 °F 75% 29.96 in 10.0 mi SSE 3.5 mph - N/A   Clear
5:56 AM 30.2 °F 24.3 °F 24.8 °F 80% 29.95 in 10.0 mi SSE 5.8 mph - N/A   Clear
6:16 AM 30.2 °F 23.4 °F 24.8 °F 80% 29.94 in 10.0 mi SSE 6.9 mph - N/A   Clear
6:56 AM 32.0 °F 24.2 °F 24.8 °F 75% 29.92 in 10.0 mi SSE 9.2 mph - N/A   Clear
7:16 AM 33.8 °F 27.7 °F 24.8 °F 70% 29.92 in 10.0 mi SSE 6.9 mph 17.3 mph N/A   Clear
7:37 AM 33.8 °F 25.3 °F 26.6 °F 75% 29.91 in 10.0 mi SSE 11.5 mph 21.9 mph N/A   Clear
7:56 AM 35.6 °F 26.6 °F 26.6 °F 70% 29.90 in 10.0 mi SSE 13.8 mph 21.9 mph N/A   Clear
8:17 AM 35.6 °F 26.6 °F 26.6 °F 70% 29.89 in 10.0 mi SSE 13.8 mph 20.7 mph N/A   Clear
8:37 AM 37.4 °F 28.9 °F 26.6 °F 65% 29.89 in 10.0 mi SSE 13.8 mph 27.6 mph N/A   Clear
8:56 AM 37.4 °F 28.2 °F 26.6 °F 65% 29.88 in 10.0 mi SSE 16.1 mph 28.8 mph N/A   Clear
9:17 AM 39.2 °F 31.6 °F 26.6 °F 61% 29.88 in 10.0 mi South 12.7 mph 25.3 mph N/A   Clear
9:37 AM 41.0 °F 33.1 °F 26.6 °F 57% 29.87 in 10.0 mi SSE 15.0 mph 21.9 mph N/A   Clear
9:56 AM 41.0 °F 33.9 °F 26.6 °F 57% 29.87 in 10.0 mi South 12.7 mph 23.0 mph N/A   Clear
10:17 AM 42.8 °F 36.6 °F 26.6 °F 53% 29.87 in 10.0 mi South 11.5 mph 24.2 mph N/A   Clear
10:37 AM 44.6 °F 38.4 °F 28.4 °F 53% 29.87 in 10.0 mi South 12.7 mph 23.0 mph N/A   Clear
10:56 AM 46.4 °F 40.4 °F 26.6 °F 46% 29.86 in 10.0 mi South 13.8 mph 24.2 mph N/A   Clear
11:17 AM 48.2 °F - 26.6 °F 43% 29.86 in 10.0 mi South 12.7 mph 21.9 mph N/A   Clear
11:37 AM 48.2 °F - 26.6 °F 43% 29.86 in 10.0 mi South 18.4 mph 27.6 mph N/A   Clear
11:56 AM 50.0 °F - 24.8 °F 37% 29.85 in 10.0 mi South 17.3 mph 29.9 mph N/A   Clear
12:17 PM 50.0 °F - 24.8 °F 37% 29.84 in 10.0 mi South 12.7 mph 25.3 mph N/A   Clear
12:37 PM 51.8 °F - 24.8 °F 35% 29.83 in 10.0 mi South 15.0 mph 33.4 mph N/A   Clear
12:56 PM 50.0 °F - 24.8 °F 37% 29.83 in 10.0 mi South 13.8 mph 28.8 mph N/A   Clear
1:17 PM 50.0 °F - 24.8 °F 37% 29.82 in 10.0 mi South 13.8 mph 26.5 mph N/A   Clear
1:36 PM 50.0 °F - 24.8 °F 37% 29.81 in 10.0 mi South 15.0 mph 27.6 mph N/A   Clear
1:56 PM 50.0 °F - 24.8 °F 37% 29.81 in 10.0 mi South 13.8 mph 24.2 mph N/A   Clear
2:17 PM 50.0 °F - 24.8 °F 37% 29.81 in 10.0 mi South 13.8 mph 26.5 mph N/A   Clear
2:36 PM 50.0 °F - 24.8 °F 37% 29.81 in 10.0 mi South 16.1 mph 25.3 mph N/A   Clear
2:56 PM 48.2 °F - 24.8 °F 40% 29.81 in 10.0 mi SSE 10.4 mph 25.3 mph N/A   Clear
3:17 PM 48.2 °F - 24.8 °F 40% 29.81 in 10.0 mi South 13.8 mph 29.9 mph N/A   Clear
3:36 PM 46.4 °F 41.1 °F 24.8 °F 43% 29.81 in 10.0 mi SSE 11.5 mph 24.2 mph N/A   Clear
3:56 PM 46.4 °F 40.1 °F 23.0 °F 40% 29.82 in 10.0 mi SSE 15.0 mph 24.2 mph N/A   Mostly Cloudy
4:17 PM 44.6 °F 38.4 °F 21.2 °F 39% 29.81 in 10.0 mi South 12.7 mph 23.0 mph N/A   Overcast
4:36 PM 44.6 °F 38.8 °F 21.2 °F 39% 29.79 in 10.0 mi South 11.5 mph 27.6 mph N/A   Scattered Clouds
4:56 PM 42.8 °F 37.0 °F 23.0 °F 46% 29.78 in 10.0 mi SSE 10.4 mph 19.6 mph N/A   Clear
5:17 PM 42.8 °F 36.6 °F 21.2 °F 42% 29.77 in 10.0 mi SSE 11.5 mph 19.6 mph N/A   Clear
5:36 PM 42.8 °F 37.5 °F 19.4 °F 39% 29.76 in 10.0 mi SSE 9.2 mph 21.9 mph N/A   Clear
5:57 PM 41.0 °F 34.3 °F 21.2 °F 45% 29.75 in 10.0 mi SSE 11.5 mph 17.3 mph N/A   Mostly Cloudy
6:17 PM 41.0 °F 33.9 °F 21.2 °F 45% 29.75 in 10.0 mi SSE 12.7 mph 19.6 mph N/A   Overcast
6:36 PM 41.0 °F 33.5 °F 19.4 °F 42% 29.75 in 10.0 mi SSE 13.8 mph 21.9 mph N/A   Overcast
6:57 PM 41.0 °F 33.5 °F 19.4 °F 42% 29.73 in 10.0 mi SSE 13.8 mph 21.9 mph N/A   Overcast
7:17 PM 41.0 °F 33.9 °F 19.4 °F 42% 29.73 in 10.0 mi SSE 12.7 mph 24.2 mph N/A   Scattered Clouds
7:36 PM 41.0 °F 32.8 °F 19.4 °F 42% 29.72 in 10.0 mi SSE 16.1 mph 32.2 mph N/A   Scattered Clouds
7:38 PM 41.0 °F 32.5 °F 19.4 °F 42% 29.71 in 10.0 mi SSE 17.3 mph 32.2 mph N/A   Mostly Cloudy
11:50 PM 33.8 °F 27.7 °F - N/A% 29.59 in - SSE 6.9 mph - N/A   Unknown
11:57 PM 35.6 °F 29.2 °F 30.2 °F 81% 29.60 in 10.0 mi SSE 8.1 mph - N/A   Unknown